Content
SEND FEEDBACK

Daily
Averages
Monthly
Summary
Italy

BARI, ITALY


Home > Europe > Italy
Elevation: 144 feet     Latitude: 41 08N     Longitude: 016 47E

WEATHER
 
SELECT A DAY
Number of Records: 295,211;   Date Range: 7/1/96 - 8/8/14
 
SHARE

PRINT THIS DATA

[ ← Previous Day ]
WEATHER ALMANAC - JANUARY 29, 2013
[ Next Day → ]
[ °C ]   °F
Weather ElementAverageHighLow
Temperature46.5 °F53.6 °F (12:50 pm)41 °F (11:20 pm)
Dewpoint40.6 °F42.8 °F (8:50 am)37.4 °F (11:20 pm)
Humidity80.6 %93 % (7:20 am)58 % (12:50 pm)
Barometer30.15 in30.21 in (9:50 am)29.53 in (5:50 am)
Wind Speed7.6 mph13.8 mph (12:20 pm)
Weather ElementAverage
Visibility5.4 mi
Wind DirectionW (265.2 °)

Weather ElementTotal
Precipitation---
Heating Degree Days17.7 (Base 65)
Averaged from 44 records on January 29, 2013
WEATHER CONDITIONS BREAKOUT
WIND DIRECTION BREAKOUT
WEATHER BY HOUR - JANUARY 29, 2013
[ °C ]   °F
Local TimeTemperatureDewpointHumidityBarometerVisibilityWind DirectionWind SpeedGust SpeedPrecipitationEventsConditions
12:50 AM44.6 °F41.0 °F87 %30.06 in4.3 miWest (270°)5.8 mphMostly Cloudy
1:20 AM44.6 °F41.0 °F87 %30.06 in5.0 miSSW (210°)8.1 mphScattered Clouds
3:20 AM44.6 °F41.0 °F87 %30.09 in5.0 miWNW (300°)8.1 mphScattered Clouds
3:50 AM44.6 °F41.0 °F87 %30.09 in5.0 miWNW (300°)5.8 mphScattered Clouds
4:20 AM42.8 °F39.2 °F87 %30.09 in4.3 miNW (310°)6.9 mphScattered Clouds
4:50 AM42.8 °F39.2 °F87 %30.09 in5.0 miWNW (300°)8.1 mphScattered Clouds
5:20 AM42.8 °F39.2 °F87 %30.09 in5.0 miWest (280°)6.9 mphScattered Clouds
5:50 AM42.8 °F39.2 °F87 %29.53 in5.0 miWSW (240°)4.6 mphScattered Clouds
6:20 AM42.8 °F39.2 °F87 %30.15 in3.1 miVariable2.3 mphRainRain
6:50 AM42.8 °F39.2 °F87 %30.15 in4.3 miVariable3.5 mphRainLight Rain
7:20 AM42.8 °F41.0 °F93 %30.15 in3.1 miWNW (290°)5.8 mphRainLight Rain
7:50 AM44.6 °F41.0 °F87 %30.15 in3.1 miWest (280°)8.1 mphRainLight Rain
8:20 AM44.6 °F41.0 °F87 %30.18 in2.5 miWNW (300°)5.8 mphRainRain
8:50 AM46.4 °F42.8 °F87 %30.18 in4.3 miWNW (290°)9.2 mphScattered Clouds
9:20 AM44.6 °F41.0 °F87 %30.18 in4.3 miWNW (300°)10.4 mphRainLight Rain
9:50 AM44.6 °F41.0 °F87 %30.21 in3.7 miWNW (300°)6.9 mphRainLight Rain
10:20 AM46.4 °F42.8 °F87 %30.21 in4.3 miWNW (290°)6.9 mphScattered Clouds
10:50 AM48.2 °F42.8 °F82 %30.21 in6.2 miWNW (300°)10.4 mphScattered Clouds
11:20 AM51.8 °F42.8 °F71 %30.18 in6.2 miNW (320°)8.1 mphPartly Cloudy
11:50 AM51.8 °F41.0 °F67 %30.18 in6.2 miNNW (330°)10.4 mphPartly Cloudy
12:20 PM51.8 °F41.0 °F67 %30.18 in6.2 miNNW (340°)13.8 mphPartly Cloudy
12:50 PM53.6 °F39.2 °F58 %30.18 in6.2 miNNW (340°)12.7 mphPartly Cloudy
1:20 PM51.8 °F39.2 °F62 %30.18 in6.2 miNNW (340°)13.8 mphPartly Cloudy
1:50 PM51.8 °F39.2 °F62 %30.18 in6.2 miNNW (340°)13.8 mphPartly Cloudy
2:20 PM51.8 °F39.2 °F62 %30.18 in6.2 miNNW (340°)12.7 mphPartly Cloudy
2:50 PM51.8 °F41.0 °F67 %30.18 in6.2 miNNW (330°)10.4 mphPartly Cloudy
3:20 PM51.8 °F39.2 °F62 %30.18 in6.2 miNNW (330°)11.5 mphPartly Cloudy
3:50 PM51.8 °F39.2 °F62 %30.18 in6.2 miNNW (340°)8.1 mphPartly Cloudy
4:20 PM51.8 °F39.2 °F62 %30.18 in6.2 miNNW (340°)6.9 mphPartly Cloudy
4:50 PM48.2 °F42.8 °F82 %30.18 in6.2 miVariable3.5 mphPartly Cloudy
5:20 PM48.2 °F42.8 °F82 %30.18 in6.2 miVariable3.5 mphPartly Cloudy
5:50 PM46.4 °F42.8 °F87 %30.15 in6.2 miWNW (300°)5.8 mphPartly Cloudy
6:20 PM46.4 °F42.8 °F87 %30.18 in6.2 miWNW (300°)5.8 mphPartly Cloudy
6:50 PM46.4 °F41.0 °F81 %30.18 in6.2 miWest (280°)6.9 mphPartly Cloudy
7:20 PM46.4 °F42.8 °F87 %30.18 in6.2 miWest (280°)6.9 mphPartly Cloudy
7:50 PM48.2 °F42.8 °F82 %30.18 in6.2 miWNW (290°)6.9 mphScattered Clouds
8:20 PM46.4 °F41.0 °F81 %30.18 in6.2 miWest (260°)6.9 mphScattered Clouds
8:50 PM44.6 °F41.0 °F87 %30.18 in6.2 miWSW (250°)5.8 mphPartly Cloudy
9:20 PM44.6 °F41.0 °F87 %30.18 in6.2 miWest (260°)6.9 mphPartly Cloudy
9:50 PM42.8 °F39.2 °F87 %30.18 in6.2 miWSW (240°)5.8 mphPartly Cloudy
10:20 PM42.8 °F39.2 °F87 %30.18 in6.2 miSW (230°)5.8 mphPartly Cloudy
10:50 PM42.8 °F39.2 °F87 %30.18 in6.2 miWSW (240°)5.8 mphPartly Cloudy
11:20 PM41.0 °F37.4 °F87 %30.18 in6.2 miWest (260°)5.8 mphPartly Cloudy
11:50 PM41.0 °F37.4 °F87 %30.15 inSW (230°)6.9 mphClear
Hourly data recorded from LIBD, located miles away from Bari, Italy







STORIES FROM OUR PARTNERS